Zurück zum Katalog

STARLINK-5281

AktivKommunikationVLEO
NORAD 54190·PAYLOAD·🇺🇸 United States

Gestartet Oct 28, 2022 von Vandenberg Space Force Base

Loading…

Nächste Überflüge (nächste 24 Stunden)

TLE

AktuellSource: CelesTrak SupGP

Epoche: Sep 15, 2026, 02:33 UTC

1 54190C 22141AK  26258.10673611 -.00025255  00000+0 -74622-3 0  2589
2 54190  53.1581 214.6701 0001319  89.8952 303.5954 15.34400588    18

Verfolge STARLINK-5281 in Echtzeit mit AllMySat

Download on the App Store